Location: Chuathbaluk
(61.5726°N, 159.2454°W)
Time: 14:10:11
(UTC+00:00)

NOAA 15 - Pass Details

Date: 20 January 2021
Orbit: 798 x 812 km, 98.7° (Epoch: 01 March)

Event Time Altitude Azimuth Distance (km) Brightness Sun altitude
Rises 04:26:40 0° 150° (SSE) 3,305 7.6 -15.1°
Reaches altitude 10° 04:29:00 10° 149° (SSE) 2,380 6.9 -15.4°
Maximum altitude 04:34:14 73° 66° (ENE) 848 4.5 -16.0°
Drops below altitude 10° 04:39:32 10° 343° (NNW) 2,403 7.1 -16.6°
Sets 04:41:53 0° 342° (NNW) 3,340 7.9 -16.9°
